TimePST,TemperatureF,Dew PointF,Humidity,Sea Level PressureIn,VisibilityMPH,Wind Direction,Wind SpeedMPH,Gust SpeedMPH,PrecipitationIn,Events,Conditions,WindDirDegrees,DateUTC
12:02 AM,42.8,39.2,87,30.34,0.2,WNW,3.5,-,N/A,Fog,Fog,290,2013-02-01 08:02:00
12:21 AM,42.8,39.2,87,30.34,0.8,Calm,Calm,-,N/A,,Mist,0,2013-02-01 08:21:00
12:46 AM,42.8,39.2,87,30.35,1.5,Calm,Calm,-,N/A,,Overcast,0,2013-02-01 08:46:00
12:53 AM,42.1,39.0,89,30.35,2.5,Calm,Calm,-,N/A,,Overcast,0,2013-02-01 08:53:00
1:04 AM,42.8,39.2,87,30.35,3.0,Calm,Calm,-,N/A,,Overcast,0,2013-02-01 09:04:00
1:53 AM,44.1,39.9,85,30.36,6.0,NNE,3.5,-,N/A,,Overcast,20,2013-02-01 09:53:00
2:53 AM,44.1,39.9,85,30.36,6.0,North,3.5,-,N/A,,Overcast,10,2013-02-01 10:53:00
3:50 AM,42.8,39.2,87,30.36,2.0,Calm,Calm,-,N/A,,Overcast,0,2013-02-01 11:50:00
3:53 AM,41.0,37.9,89,30.37,1.2,Calm,Calm,-,N/A,,Overcast,0,2013-02-01 11:53:00
4:02 AM,41.0,37.4,87,30.36,2.5,Calm,Calm,-,N/A,,Overcast,0,2013-02-01 12:02:00
4:06 AM,41.0,37.4,87,30.35,1.2,Calm,Calm,-,N/A,,Overcast,0,2013-02-01 12:06:00
4:15 AM,39.2,37.4,93,30.36,0.2,Calm,Calm,-,N/A,Fog,Fog,0,2013-02-01 12:15:00
4:22 AM,39.2,35.6,87,30.35,0.2,Calm,Calm,-,N/A,Fog,Fog,0,2013-02-01 12:22:00
4:31 AM,39.2,35.6,87,30.36,0.2,Calm,Calm,-,N/A,Fog,Fog,0,2013-02-01 12:31:00
4:53 AM,39.0,37.0,93,30.36,0.2,Calm,Calm,-,N/A,Fog,Fog,0,2013-02-01 12:53:00
5:26 AM,41.0,37.4,87,30.36,0.8,Calm,Calm,-,N/A,,Overcast,0,2013-02-01 13:26:00
5:29 AM,41.0,37.4,87,30.36,1.8,Calm,Calm,-,N/A,,Overcast,0,2013-02-01 13:29:00
5:31 AM,41.0,37.4,87,30.36,4.0,Calm,Calm,-,N/A,,Overcast,0,2013-02-01 13:31:00
5:53 AM,42.1,39.0,89,30.37,7.0,Calm,Calm,-,N/A,,Overcast,0,2013-02-01 13:53:00
6:20 AM,42.8,39.2,87,30.37,6.0,Calm,Calm,-,N/A,,Overcast,0,2013-02-01 14:20:00
6:44 AM,42.8,39.2,87,30.37,2.0,Calm,Calm,-,N/A,,Overcast,0,2013-02-01 14:44:00
6:53 AM,42.1,39.0,89,30.38,1.5,Calm,Calm,-,N/A,,Overcast,0,2013-02-01 14:53:00
7:01 AM,42.8,39.2,87,30.37,1.0,NE,3.5,-,N/A,,Mist,40,2013-02-01 15:01:00
7:12 AM,42.8,39.2,87,30.37,1.2,Calm,Calm,-,N/A,,Overcast,0,2013-02-01 15:12:00
7:35 AM,42.8,39.2,87,30.37,1.0,ENE,4.6,-,0.01,,Mist,70,2013-02-01 15:35:00
7:53 AM,42.1,39.0,89,30.38,1.8,East,4.6,-,0.01,,Overcast,80,2013-02-01 15:53:00
8:11 AM,42.8,39.2,87,30.38,0.8,East,4.6,-,N/A,,Mist,80,2013-02-01 16:11:00
8:24 AM,42.8,39.2,87,30.38,0.8,ENE,5.8,-,N/A,,Overcast,70,2013-02-01 16:24:00
8:31 AM,42.8,39.2,87,30.38,1.2,East,5.8,-,N/A,,Overcast,80,2013-02-01 16:31:00
8:35 AM,42.8,39.2,87,30.38,1.5,East,5.8,-,N/A,,Overcast,80,2013-02-01 16:35:00
8:49 AM,42.8,39.2,87,30.39,3.0,East,5.8,-,N/A,,Overcast,80,2013-02-01 16:49:00
8:53 AM,43.0,39.9,89,30.39,4.0,East,6.9,-,N/A,,Overcast,80,2013-02-01 16:53:00
9:19 AM,42.8,39.2,87,30.39,2.0,ENE,5.8,-,N/A,,Overcast,70,2013-02-01 17:19:00
9:26 AM,42.8,39.2,87,30.39,3.0,ENE,6.9,-,N/A,,Overcast,70,2013-02-01 17:26:00
9:53 AM,44.1,39.9,85,30.40,5.0,East,5.8,-,N/A,,Overcast,80,2013-02-01 17:53:00
10:53 AM,45.0,39.9,82,30.40,5.0,East,6.9,-,N/A,,Haze,90,2013-02-01 18:53:00
11:29 AM,48.2,41.0,76,30.38,6.0,ENE,6.9,-,N/A,,Haze,70,2013-02-01 19:29:00
11:53 AM,48.0,41.0,77,30.38,5.0,ENE,4.6,-,N/A,,Haze,70,2013-02-01 19:53:00
12:07 PM,48.2,41.0,76,30.37,6.0,East,8.1,-,N/A,,Haze,80,2013-02-01 20:07:00
12:17 PM,48.2,41.0,76,30.37,6.0,ENE,6.9,-,N/A,,Haze,60,2013-02-01 20:17:00
12:53 PM,51.1,42.1,71,30.38,6.0,NNE,4.6,-,N/A,,Haze,30,2013-02-01 20:53:00
1:01 PM,51.8,42.8,71,30.37,6.0,NNE,3.5,-,N/A,,Haze,20,2013-02-01 21:01:00
1:09 PM,51.8,42.8,71,30.36,6.0,ENE,5.8,-,N/A,,Haze,60,2013-02-01 21:09:00
1:53 PM,52.0,42.1,69,30.37,6.0,NNW,4.6,-,N/A,,Haze,340,2013-02-01 21:53:00
2:08 PM,53.6,42.8,67,30.36,6.0,NNW,4.6,-,N/A,,Haze,340,2013-02-01 22:08:00
2:53 PM,51.1,43.0,74,30.37,6.0,North,3.5,-,N/A,,Haze,360,2013-02-01 22:53:00
3:53 PM,51.1,42.1,71,30.37,5.0,NE,5.8,-,N/A,,Haze,50,2013-02-01 23:53:00
4:53 PM,48.0,39.9,74,30.37,5.0,NNE,4.6,-,N/A,,Haze,30,2013-02-02 00:53:00
5:21 PM,46.4,39.2,76,30.36,5.0,NE,5.8,-,N/A,,Haze,40,2013-02-02 01:21:00
5:53 PM,44.1,39.0,82,30.36,6.0,NNE,5.8,-,N/A,,Haze,30,2013-02-02 01:53:00
6:53 PM,43.0,37.9,82,30.36,6.0,NE,4.6,-,N/A,,Haze,40,2013-02-02 02:53:00
7:53 PM,42.1,37.0,82,30.35,5.0,NE,6.9,-,N/A,,Haze,50,2013-02-02 03:53:00
8:53 PM,41.0,37.0,86,30.35,5.0,Calm,Calm,-,N/A,,Clear,0,2013-02-02 04:53:00
9:53 PM,39.9,36.0,86,30.35,3.0,Calm,Calm,-,N/A,,Clear,0,2013-02-02 05:53:00
10:02 PM,39.2,35.6,87,30.35,2.5,Calm,Calm,-,N/A,,Clear,0,2013-02-02 06:02:00
10:10 PM,39.2,37.4,93,30.34,4.0,Calm,Calm,-,N/A,,Clear,0,2013-02-02 06:10:00
10:53 PM,37.9,34.0,86,30.34,4.0,East,3.5,-,N/A,,Clear,80,2013-02-02 06:53:00
11:37 PM,37.4,33.8,87,30.34,1.2,Calm,Calm,-,N/A,,Clear,0,2013-02-02 07:37:00
11:43 PM,37.4,33.8,87,30.34,0.2,Calm,Calm,-,N/A,Fog,Fog,0,2013-02-02 07:43:00
11:53 PM,37.0,34.0,89,30.34,0.2,Calm,Calm,-,N/A,Fog,Fog,0,2013-02-02 07:53:00